User: anonymous   Login
Location: D�derode
(51.8092°N, 10.1065°E)
Time: 01:47:04
(UTC+00:00)
Language:

SL-24 DEB - Orbit

View from above orbital plane
View from above orbital plane
View from above satellite
View from above satellite

Ground track
Ground track

The orbit data is extracted from the following two-line orbital elements,

1 36510U 10013C   21060.27495241  .00000270  00000-0  51685-4 0  9991
2 36510  92.0214 185.3184 0021971 288.0172  71.8647 14.63308443580825
Epoch (UTC): 01 March 2021 06:35:55
Eccentricity: 0.0021971
inclination: 92.0214°
perigee height: 667 km
apogee height: 698 km
right ascension of ascending node: 185.3184°
argument of perigee: 288.0172°
revolutions per day: 14.63308443
mean anomaly at epoch: 71.8647°
orbit number at epoch: 58082

The dashed part of the orbit path shows where the satellite is in the earth's shadow,  

DLR